W9KOZ-6 Weather Reports


time (UTC)temp
C
wind
direction
speed
KPH
gust
KPH
rain 1hr
cm
rain 24hr
cm
rain mn
cm
humidity
%
barometer
mb
20260508032948 15 278 4.8 8.0 0.00 0.03 0.03 99 1026.8
20260508031948 15 338 4.8 6.4 0.00 0.03 0.03 99 1026.8
20260508030943 15 271 6.4 11.3 0.00 0.03 0.03 99 1026.8
20260508030415 15 295 6.4 9.7 0.00 0.03 0.03 99 1026.8
20260508024937 15 274 8.0 11.3 0.00 0.03 0.03 99 1026.8
20260508023939 15 268 8.0 12.9 0.00 0.03 0.03 99 1026.8
20260508023412 16 277 6.4 12.9 0.00 0.03 0.03 99 1026.8
20260508022345 16 227 3.2 8.0 0.00 0.03 0.03 99 1026.7
20260508022009 16 275 6.4 9.7 0.00 0.03 0.03 99 1026.8
20260508015926 16 278 4.8 8.0 0.00 0.03 0.03 99 1026.8
20260508014924 17 223 4.8 8.0 0.00 0.03 0.03 99 1026.8
20260508013924 17 212 4.8 8.0 0.00 0.03 0.03 99 1026.9
20260508012924 17 256 6.4 12.9 0.00 0.03 0.03 99 1027.0
20260508011924 18 289 8.0 14.5 0.00 0.03 0.03 99 1027.3
20260508010920 17 236 3.2 6.4 0.00 0.03 0.03 99 1027.2
20260508005921 17 313 4.8 9.7 0.00 0.03 0.03 99 1027.0
20260508004920 18 318 6.4 14.5 0.00 0.03 0.03 99 1027.2
20260508003921 18 248 8.0 17.7 0.00 0.03 0.03 99 1027.3
20260508002921 18 290 11.3 17.7 0.00 0.03 0.03 99 1027.4
20260508001921 18 265 8.0 16.1 0.00 0.03 0.03 99 1027.3
20260508000921 18 282 11.3 24.1 0.00 0.03 0.03 99 1027.6
20260507235919 18 272 9.7 16.1 0.00 0.03 0.03 99 1027.5
20260507234919 18 271 9.7 20.9 0.00 0.03 0.03 99 1027.6
20260507233919 18 344 6.4 29.0 0.00 0.03 0.03 99 1027.4
20260507232918 18 290 6.4 29.0 0.00 0.03 0.03 99 1027.5
20260507232356 18 275 9.7 20.9 0.00 0.03 0.03 99 1028.0
20260507231400 18 300 11.3 24.1 0.00 0.03 0.03 99 1027.8
20260507225917 18 319 16.1 35.4 0.00 0.03 0.03 99 1027.8
20260507225351 18 281 14.5 30.6 0.00 0.03 0.03 99 1028.0
20260507223917 18 306 12.9 30.6 0.00 0.03 0.03 99 1028.1
20260507222917 18 307 19.3 35.4 0.00 0.03 0.03 99 1028.1
20260507221918 19 332 11.3 25.7 0.00 0.03 0.03 99 1028.4
20260507220915 18 295 11.3 32.2 0.00 0.03 0.03 99 1028.4
20260507215912 18 311 19.3 35.4 0.03 0.03 0.03 99 1028.2
20260507214912 18 310 12.9 30.6 0.03 0.03 0.03 99 1028.1
20260507213912 18 333 12.9 24.1 0.03 0.03 0.03 99 1027.9
20260507212912 18 275 16.1 33.8 0.03 0.03 0.03 99 1027.6
20260507211912 18 247 20.9 41.8 0.03 0.03 0.03 99 1028.2
20260507210910 18 291 19.3 35.4 0.00 0.03 0.00 99 1027.9
20260507205909 18 339 11.3 24.1 0.00 0.00 0.00 99 1028.4
20260507204909 17 269 11.3 27.4 0.00 0.00 0.00 99 1028.4
20260507203909 17 347 14.5 29.0 0.00 0.00 0.00 99 1028.2
20260507202911 16 273 9.7 20.9 0.00 0.00 0.00 99 1028.4
20260507202346 16 303 9.7 17.7 0.00 0.00 0.00 99 1028.4
20260507200907 16 324 9.7 19.3 0.00 0.00 0.00 99 1028.4
20260507200349 16 3 9.7 19.3 0.00 0.00 0.00 99 1028.0
20260507194908 16 293 11.3 22.5 0.00 0.00 0.00 99 1027.6
20260507193908 17 344 9.7 24.1 0.00 0.00 0.00 99 1027.9
20260507192908 16 331 11.3 27.4 0.00 0.00 0.00 99 1028.0
20260507191905 16 317 8.0 20.9 0.00 0.00 0.00 99 1028.2
20260507190905 16 68 11.3 20.9 0.00 0.00 0.00 99 1028.6
20260507185906 16 346 14.5 24.1 0.00 0.00 0.00 99 1028.2
20260507184906 17 278 11.3 22.5 0.00 0.00 0.00 99 1028.4
20260507183906 17 340 9.7 19.3 0.00 0.00 0.00 99 1028.5
20260507182906 16 318 9.7 17.7 0.00 0.00 0.00 99 1028.2
20260507181903 16 347 6.4 14.5 0.00 0.00 0.00 99 1028.5
20260507180900 17 349 6.4 17.7 0.00 0.00 0.00 99 1028.7
20260507175901 16 162 9.7 19.3 0.00 0.00 0.00 99 1028.7
20260507175335 16 47 9.7 16.1 0.00 0.00 0.00 99 1028.6
20260507174336 15 275 8.0 19.3 0.00 0.00 0.00 99 1028.5
20260507172858 15 275 8.0 20.9 0.00 0.00 0.00 99 1028.4
20260507171859 15 276 8.0 22.5 0.00 0.00 0.00 99 1028.2
20260507170858 14 274 8.0 16.1 0.00 0.00 0.00 99 1028.0
20260507165857 14 297 9.7 20.9 0.00 0.00 0.00 99 1028.0
20260507164853 14 269 14.5 22.5 0.00 0.00 0.00 99 1027.8
20260507163853 14 272 11.3 24.1 0.00 0.00 0.00 99 1027.6
20260507162852 14 317 6.4 14.5 0.00 0.00 0.00 99 1027.8
20260507161853 13 211 9.7 17.7 0.00 0.00 0.00 99 1027.6
20260507160850 13 237 9.7 16.1 0.00 0.00 0.00 99 1027.5
20260507155850 13 241 9.7 17.7 0.00 0.00 0.00 99 1027.4
20260507154851 13 278 11.3 19.3 0.00 0.00 0.00 99 1027.4
20260507153847 13 297 11.3 20.9 0.00 0.00 0.00 99 1027.5
20260507153332 12 301 9.7 20.9 0.00 0.00 0.00 99 1027.4
20260507151847 12 283 11.3 17.7 0.00 0.00 0.00 99 1027.2
20260507151321 12 315 4.8 11.3 0.00 0.00 0.00 99 1027.4
20260507145848 12 122 9.7 20.9 0.00 0.00 0.00 99 1027.2
20260507144848 11 131 8.0 14.5 0.00 0.00 0.00 99 1027.0
20260507143845 11 4 4.8 14.5 0.00 0.00 0.00 99 1026.9
20260507142836 10 82 6.4 17.7 0.00 0.00 0.00 99 1026.8
20260507141836 8 309 4.8 8.0 0.00 0.00 0.00 99 1026.4
20260507141316 7 310 6.4 16.1 0.00 0.00 0.00 99 1026.3
20260507135832 6 301 4.8 11.3 0.00 0.00 0.00 99 1025.9
20260507134832 5 67 6.4 9.7 0.00 0.00 0.00 99 1025.6
20260507134318 4 293 3.2 9.7 0.00 0.00 0.00 99 1025.2
20260507132831 3 310 3.2 6.4 0.00 0.00 0.00 99 1025.1
20260507131832 2 345 3.2 6.4 0.00 0.00 0.00 99 1025.0
20260507130831 2 359 4.8 17.7 0.00 0.00 0.00 99 1024.9
20260507125832 1 338 3.2 4.8 0.00 0.00 0.00 99 1024.7
20260507124816 0 297 3.2 6.4 0.00 0.00 0.00 99 1024.6
20260507123817 0 319 1.6 6.4 0.00 0.00 0.00 99 1024.5
20260507122816 0 305 1.6 4.8 0.00 0.00 0.00 99 1024.4
20260507121807 -1 273 6.4 16.1 0.00 0.00 0.00 99 1024.4
20260507120808 -1 297 3.2 11.3 0.00 0.00 0.00 99 1024.2
20260507120246 -1 333 4.8 19.3 0.00 0.00 0.00 99 1024.2
20260507114806 -1 340 3.2 17.7 0.00 0.00 0.00 99 1024.2
20260507114242 -1 309 4.8 14.5 0.00 0.00 0.00 99 1024.2
20260507112801 -1 332 6.4 20.9 0.00 0.00 0.00 99 1024.2
20260507112235 -1 323 6.4 19.3 0.00 0.00 0.00 99 1024.2
20260507110801 -1 325 6.4 20.9 0.00 0.00 0.00 99 1024.2
20260507105801 -1 306 6.4 17.7 0.00 0.00 0.00 99 1024.2
20260507104800 -1 311 6.4 19.3 0.00 0.00 0.00 99 1024.2
20260507103801 -2 312 6.4 17.7 0.00 0.00 0.00 99 1024.2
20260507102801 -1 272 4.8 12.9 0.00 0.00 0.00 99 1024.2
20260507101802 -1 41 3.2 14.5 0.00 0.00 0.00 99 1024.2
20260507100751 -2 300 6.4 20.9 0.00 0.00 0.00 99 1024.1
20260507095751 -2 313 8.0 20.9 0.00 0.00 0.00 99 1024.2
20260507095232 -2 311 4.8 9.7 0.00 0.00 0.00 99 1024.2
20260507093748 -2 295 3.2 6.4 0.00 0.00 0.00 99 1024.1
20260507093223 -2 281 3.2 12.9 0.00 0.00 0.00 99 1024.2
20260507091740 -2 248 3.2 11.3 0.00 0.00 0.00 99 1024.2
20260507091214 -1 166 3.2 6.4 0.00 0.00 0.00 99 1024.2
20260507090216 -1 350 3.2 6.4 0.00 0.00 0.00 99 1024.2
20260507084734 -1 0 3.2 12.9 0.00 0.00 0.00 99 1024.2
20260507084218 -1 315 4.8 17.7 0.00 0.00 0.00 99 1024.4
20260507082734 -1 316 3.2 17.7 0.00 0.00 0.00 99 1024.4
20260507081734 -1 348 3.2 6.4 0.00 0.00 0.00 99 1024.2
20260507080734 -1 354 4.8 9.7 0.00 0.00 0.00 99 1024.4
20260507075722 -1 346 4.8 11.3 0.00 0.00 0.00 99 1024.4
20260507074720 -1 4 4.8 11.3 0.00 0.00 0.00 99 1024.4
20260507073711 -1 9 8.0 14.5 0.00 0.00 0.00 99 1024.5
20260507072711 -1 345 8.0 12.9 0.00 0.00 0.00 99 1024.5
20260507071710 -1 331 8.0 27.4 0.00 0.00 0.00 99 1024.5
20260507070705 -1 287 4.8 22.5 0.00 0.00 0.00 99 1024.5
20260507065704 -1 339 3.2 4.8 0.00 0.00 0.00 99 1024.5
20260507064704 -1 321 1.6 6.4 0.00 0.00 0.00 99 1024.5
20260507063651 0 282 3.2 8.0 0.00 0.00 0.00 99 1024.5
20260507062635 0 307 4.8 8.0 0.00 0.00 0.00 99 1024.6
20260507061636 0 315 4.8 8.0 0.00 0.00 0.00 99 1024.6
20260507060624 0 328 4.8 9.7 0.00 0.00 0.00 99 1024.7
20260507055620 0 338 3.2 6.4 0.00 0.00 0.00 99 1024.7
20260507055057 0 342 3.2 6.4 0.00 0.00 0.00 99 1024.7
20260507053608 0 0 3.2 6.4 0.00 0.00 0.00 99 1024.7
20260507052607 0 0 3.2 4.8 0.00 0.00 0.00 99 1024.7
20260507051606 -1 0 3.2 4.8 0.00 0.00 0.00 99 1024.5
20260507050606 0 0 3.2 6.4 0.00 0.00 0.00 99 1024.5
20260507045606 0 347 3.2 4.8 0.00 0.00 0.00 99 1024.4
20260507044605 0 333 1.6 3.2 0.00 0.00 0.00 99 1024.4
20260507044049 0 326 3.2 3.2 0.00 0.00 0.00 99 1024.4
20260507042552 0 331 3.2 4.8 0.00 0.00 0.00 99 1024.5
20260507042026 0 349 1.6 4.8 0.00 0.00 0.00 99 1024.4
20260507040554 0 355 1.6 4.8 0.00 0.00 0.00 99 1024.5
20260507035553 0 0 1.6 3.2 0.00 0.00 0.00 99 1024.4
20260507034553 0 339 1.6 3.2 0.00 0.00 0.00 99 1024.4